Location: Oakley
(37.9974°N, 121.7125°W)
Time: 06:36:18
(UTC+00:00)

Helios 1A Rocket - Pass Details

Date: 13 February 2026
Orbit: 420 x 430 km, 98.3° (Epoch: 9 March)

Event Time Altitude Azimuth Distance (km) Brightness Sun altitude
Rises 14:20:58 0° 165° (SSE) 2,394 6.5 -8.1°
Reaches altitude 10° 14:22:58 10° 164° (SSE) 1,528 5.5 -7.7°
Maximum altitude 14:26:14 85° 78° (ENE) 437 2.4 -7.1°
Drops below altitude 10° 14:29:30 10° 348° (NNW) 1,529 4.9 -6.5°
Sets 14:31:31 0° 348° (NNW) 2,396 5.8 -6.1°
